GW3570 Weather Reports


Display with metric or nautical units.
time (UTC)temp
F
wind
direction
speed
MPH
gust
MPH
rain 1hr
in
rain 24hr
in
rain mn
in
humidity
%
barometer
mb
20260831024914 84 167 0.0 0.0 0.00 0.00 0.00 56 1014.6
20260831024413 84 294 0.0 1.0 0.00 0.00 0.00 56 1014.4
20260831023908 84 236 0.0 0.0 0.00 0.00 0.00 55 1014.3
20260831023406 84 173 0.0 0.0 0.00 0.00 0.00 55 1014.3
20260831022901 84 117 0.0 0.0 0.00 0.00 0.00 55 1014.1
20260831022400 84 183 0.0 0.0 0.00 0.00 0.00 54 1014.1
20260831021855 84 15 0.0 0.0 0.00 0.00 0.00 55 1014.1
20260831021354 85 64 0.0 0.0 0.00 0.00 0.00 55 1014.2
20260831020850 85 123 0.0 0.0 0.00 0.00 0.00 54 1014.1
20260831020350 85 203 0.0 0.0 0.00 0.00 0.00 54 1014.0
20260831015845 85 77 0.0 0.0 0.00 0.00 0.00 53 1014.0
20260831015341 86 330 0.0 0.0 0.00 0.00 0.00 53 1013.8
20260831014841 86 86 0.0 0.0 0.00 0.00 0.00 53 1013.9
20260831014336 86 100 0.0 0.0 0.00 0.00 0.00 52 1013.7
20260831013832 86 248 0.0 0.0 0.00 0.00 0.00 51 1013.4
20260831013331 87 195 0.0 0.0 0.00 0.00 0.00 51 1013.7
20260831012826 87 184 0.0 0.0 0.00 0.00 0.00 50 1013.5
20260831012322 89 196 0.0 0.0 0.00 0.00 0.00 50 1013.6
20260831011821 89 139 0.0 0.0 0.00 0.00 0.00 50 1013.3
20260831011316 90 151 0.0 0.0 0.00 0.00 0.00 49 1013.4
20260831010812 90 115 3.0 3.0 0.00 0.00 0.00 49 1013.5
20260831010307 90 127 4.0 5.0 0.00 0.00 0.00 48 1013.3
20260831005803 91 119 2.0 2.0 0.00 0.00 0.00 48 1013.3
20260831005258 91 124 3.0 5.0 0.00 0.00 0.00 46 1013.3
20260831004752 91 120 2.0 2.0 0.00 0.00 0.00 46 1013.3
20260831004248 91 111 1.0 2.0 0.00 0.00 0.00 51 1013.6
20260831003744 92 122 4.0 5.0 0.00 0.00 0.00 44 1013.5
20260831003240 92 184 2.0 2.0 0.00 0.00 0.00 45 1013.3
20260831002739 93 103 3.0 5.0 0.00 0.00 0.00 47 1013.7
20260831002238 93 92 3.0 3.0 0.00 0.00 0.00 45 1013.5
20260831001735 93 116 4.0 5.0 0.00 0.00 0.00 45 1013.3
20260831001229 93 108 5.0 6.0 0.00 0.00 0.00 43 1013.4
20260831000726 94 97 3.0 3.0 0.00 0.00 0.00 45 1013.3
20260831000221 94 115 2.0 2.0 0.00 0.00 0.00 46 1013.4
20260830235720 94 109 2.0 3.0 0.00 0.00 0.00 45 1013.3
20260830235215 94 125 2.0 3.0 0.00 0.00 0.00 42 1013.5
20260830234710 95 125 1.0 2.0 0.00 0.00 0.00 44 1013.4
20260830234206 95 87 1.0 2.0 0.00 0.00 0.00 43 1013.5
20260830233701 95 108 4.0 6.0 0.00 0.00 0.00 43 1013.6
20260830233157 95 272 3.0 5.0 0.00 0.00 0.00 42 1013.6
20260830232652 96 137 3.0 5.0 0.00 0.00 0.00 43 1013.6
20260830232148 96 60 3.0 6.0 0.00 0.00 0.00 41 1013.5
20260830231644 96 105 5.0 6.0 0.00 0.00 0.00 40 1013.3
20260830231138 96 132 6.0 7.0 0.00 0.00 0.00 39 1013.3
20260830230634 96 103 2.0 3.0 0.00 0.00 0.00 42 1013.4
20260830230133 97 76 4.0 7.0 0.00 0.00 0.00 40 1013.4
20260830225628 98 51 4.0 5.0 0.00 0.00 0.00 40 1013.4
20260830225123 98 149 4.0 5.0 0.00 0.00 0.00 35 1013.4
20260830224621 97 153 1.0 2.0 0.00 0.00 0.00 36 1013.3
20260830224117 98 147 3.0 3.0 0.00 0.00 0.00 41 1013.2
20260830223614 98 73 4.0 5.0 0.00 0.00 0.00 40 1013.4
20260830223114 98 101 3.0 3.0 0.00 0.00 0.00 37 1013.3
20260830222609 99 130 4.0 6.0 0.00 0.00 0.00 39 1013.2
20260830222105 99 101 5.0 6.0 0.00 0.00 0.00 38 1013.7
20260830221600 99 131 4.0 5.0 0.00 0.00 0.00 36 1013.5
20260830221056 100 112 7.0 8.0 0.00 0.00 0.00 35 1013.4
20260830220551 100 172 0.0 0.0 0.00 0.00 0.00 33 1013.4
20260830220049 100 157 6.0 7.0 0.00 0.00 0.00 34 1013.5
20260830215544 100 111 6.0 7.0 0.00 0.00 0.00 36 1013.4
20260830215038 100 81 3.0 7.0 0.00 0.00 0.00 35 1013.5
20260830214533 100 107 4.0 5.0 0.00 0.00 0.00 38 1013.7
20260830214028 100 119 5.0 6.0 0.00 0.00 0.00 36 1013.5
20260830213527 100 110 2.0 3.0 0.00 0.00 0.00 35 1013.8
20260830213023 100 132 5.0 5.0 0.00 0.00 0.00 35 1013.9
20260830212518 100 122 5.0 8.0 0.00 0.00 0.00 35 1013.6
20260830212013 101 208 7.0 7.0 0.00 0.00 0.00 32 1013.7
20260830211508 100 142 4.0 5.0 0.00 0.00 0.00 33 1013.8
20260830211003 100 166 4.0 5.0 0.00 0.00 0.00 35 1013.9
20260830210502 100 132 6.0 7.0 0.00 0.00 0.00 33 1013.8
20260830210001 100 156 6.0 7.0 0.00 0.00 0.00 35 1013.8
20260830205454 100 125 3.0 5.0 0.00 0.00 0.00 38 1013.9
20260830204950 100 101 3.0 5.0 0.00 0.00 0.00 36 1013.9
20260830204449 100 184 3.0 5.0 0.00 0.00 0.00 34 1013.9
20260830203944 100 150 3.0 3.0 0.00 0.00 0.00 36 1014.0
20260830203440 100 134 7.0 9.0 0.00 0.00 0.00 35 1013.8
20260830202939 100 166 4.0 5.0 0.00 0.00 0.00 35 1014.1
20260830202434 100 133 4.0 6.0 0.00 0.00 0.00 35 1014.1
20260830201930 100 130 5.0 6.0 0.00 0.00 0.00 34 1014.1
20260830201423 99 149 6.0 7.0 0.00 0.00 0.00 36 1014.3
20260830200919 99 116 5.0 6.0 0.00 0.00 0.00 33 1014.4
20260830200419 99 170 3.0 5.0 0.00 0.00 0.00 36 1014.4
20260830195909 99 162 5.0 5.0 0.00 0.00 0.00 37 1014.7
20260830195408 99 153 4.0 5.0 0.00 0.00 0.00 35 1014.8
20260830194906 100 139 6.0 7.0 0.00 0.00 0.00 35 1014.6
20260830194401 100 161 4.0 5.0 0.00 0.00 0.00 35 1014.5
20260830193855 100 186 5.0 6.0 0.00 0.00 0.00 36 1014.8
20260830193354 100 136 4.0 5.0 0.00 0.00 0.00 35 1014.8
20260830192850 100 130 4.0 6.0 0.00 0.00 0.00 35 1014.7
20260830192349 100 161 4.0 5.0 0.00 0.00 0.00 38 1014.8
20260830191845 99 160 3.0 3.0 0.00 0.00 0.00 36 1015.1
20260830191345 100 170 3.0 5.0 0.00 0.00 0.00 36 1014.9
20260830190841 99 157 5.0 6.0 0.00 0.00 0.00 38 1015.0
20260830190336 98 159 2.0 2.0 0.00 0.00 0.00 36 1015.0
20260830185834 97 184 3.0 3.0 0.00 0.00 0.00 40 1015.0
20260830185329 98 153 7.0 8.0 0.00 0.00 0.00 37 1015.2
20260830184824 99 162 5.0 7.0 0.00 0.00 0.00 37 1015.1
20260830184319 99 105 3.0 3.0 0.00 0.00 0.00 35 1015.2
20260830183813 98 126 6.0 7.0 0.00 0.00 0.00 36 1015.5
20260830183313 98 178 4.0 5.0 0.00 0.00 0.00 37 1015.5
20260830182809 97 185 3.0 5.0 0.00 0.00 0.00 38 1015.5
20260830182306 96 195 4.0 5.0 0.00 0.00 0.00 38 1015.3
20260830181801 96 132 6.0 7.0 0.00 0.00 0.00 37 1015.3
20260830181255 97 162 5.0 8.0 0.00 0.00 0.00 39 1015.5
20260830180754 96 159 4.0 5.0 0.00 0.00 0.00 39 1015.8
20260830180250 97 182 4.0 5.0 0.00 0.00 0.00 38 1015.9
20260830175743 97 176 4.0 5.0 0.00 0.00 0.00 39 1015.7
20260830175238 97 169 4.0 5.0 0.00 0.00 0.00 37 1015.7
20260830174733 97 161 5.0 6.0 0.00 0.00 0.00 37 1015.7
20260830174229 96 194 8.0 9.0 0.00 0.00 0.00 38 1016.0
20260830173728 96 171 5.0 6.0 0.00 0.00 0.00 39 1015.8
20260830173224 96 173 4.0 7.0 0.00 0.00 0.00 38 1016.0
20260830172720 96 167 6.0 7.0 0.00 0.00 0.00 38 1015.9
20260830172216 95 176 6.0 7.0 0.00 0.00 0.00 38 1016.1
20260830171711 95 146 6.0 7.0 0.00 0.00 0.00 41 1016.0
20260830171201 95 169 3.0 3.0 0.00 0.00 0.00 40 1016.2
20260830170656 95 174 5.0 6.0 0.00 0.00 0.00 41 1016.2
20260830170155 94 186 3.0 3.0 0.00 0.00 0.00 39 1016.4
20260830165649 94 144 4.0 5.0 0.00 0.00 0.00 41 1016.4
20260830165145 94 179 4.0 5.0 0.00 0.00 0.00 40 1016.6
20260830164642 94 208 6.0 7.0 0.00 0.00 0.00 39 1016.3
20260830164137 94 168 4.0 5.0 0.00 0.00 0.00 38 1016.5
20260830163633 93 167 5.0 6.0 0.00 0.00 0.00 41 1016.7
20260830163127 94 126 7.0 8.0 0.00 0.00 0.00 41 1016.4
20260830162623 94 137 6.0 7.0 0.00 0.00 0.00 43 1016.6
20260830162119 92 119 6.0 7.0 0.00 0.00 0.00 43 1016.6
20260830161618 93 154 3.0 3.0 0.00 0.00 0.00 40 1016.5
20260830161113 92 129 7.0 8.0 0.00 0.00 0.00 44 1016.4
20260830160609 92 143 3.0 3.0 0.00 0.00 0.00 45 1016.7
20260830160104 92 154 3.0 6.0 0.00 0.00 0.00 42 1016.4
20260830155600 92 167 3.0 3.0 0.00 0.00 0.00 45 1016.7
20260830155055 91 151 5.0 5.0 0.00 0.00 0.00 44 1016.7
20260830154550 91 149 5.0 7.0 0.00 0.00 0.00 43 1016.5
20260830154047 90 152 8.0 10.0 0.00 0.00 0.00 45 1016.5
20260830153543 90 148 5.0 6.0 0.00 0.00 0.00 43 1016.8
20260830153042 90 193 4.0 6.0 0.00 0.00 0.00 44 1016.6
20260830152537 90 137 5.0 6.0 0.00 0.00 0.00 47 1016.8
20260830152036 89 148 3.0 5.0 0.00 0.00 0.00 48 1016.6
20260830151530 88 147 1.0 1.0 0.00 0.00 0.00 47 1016.5
20260830151025 87 136 1.0 2.0 0.00 0.00 0.00 49 1016.5
20260830150524 87 147 4.0 5.0 0.00 0.00 0.00 48 1016.5
20260830150019 87 144 1.0 2.0 0.00 0.00 0.00 49 1016.6
20260830145514 86 147 0.0 0.0 0.00 0.00 0.00 49 1016.8
20260830145009 85 149 2.0 2.0 0.00 0.00 0.00 51 1016.5
20260830144505 85 161 1.0 2.0 0.00 0.00 0.00 51 1016.7
20260830144000 84 152 2.0 3.0 0.00 0.00 0.00 53 1016.7
20260830143455 84 140 3.0 3.0 0.00 0.00 0.00 53 1016.6
20260830142953 83 142 1.0 2.0 0.00 0.00 0.00 53 1016.7
20260830142449 83 142 2.0 2.0 0.00 0.00 0.00 54 1016.6
20260830141943 82 144 0.0 0.0 0.00 0.00 0.00 56 1016.5
20260830141439 82 145 3.0 3.0 0.00 0.00 0.00 54 1016.5
20260830140934 82 144 5.0 6.0 0.00 0.00 0.00 55 1016.5
20260830140429 82 137 3.0 3.0 0.00 0.00 0.00 55 1016.6
20260830135928 81 143 0.0 0.0 0.00 0.00 0.00 57 1016.8
20260830135424 81 137 1.0 1.0 0.00 0.00 0.00 57 1016.8
20260830134920 81 147 1.0 2.0 0.00 0.00 0.00 56 1016.8
20260830134415 81 138 2.0 2.0 0.00 0.00 0.00 58 1016.7
20260830133910 80 145 1.0 1.0 0.00 0.00 0.00 58 1016.5
20260830133406 78 144 1.0 1.0 0.00 0.00 0.00 62 1016.4
20260830132900 77 144 0.0 0.0 0.00 0.00 0.00 64 1016.6
20260830132357 76 146 0.0 0.0 0.00 0.00 0.00 68 1016.4
20260830131856 75 144 0.0 0.0 0.00 0.00 0.00 67 1016.6
20260830131351 75 143 0.0 0.0 0.00 0.00 0.00 67 1016.5
20260830130851 75 142 1.0 1.0 0.00 0.00 0.00 68 1016.5
20260830130346 75 133 0.0 0.0 0.00 0.00 0.00 67 1016.7
20260830125845 75 140 2.0 2.0 0.00 0.00 0.00 68 1016.6
20260830125341 75 143 0.0 0.0 0.00 0.00 0.00 68 1016.6
20260830124838 75 143 0.0 0.0 0.00 0.00 0.00 69 1016.7
20260830124333 73 134 2.0 2.0 0.00 0.00 0.00 68 1016.6
20260830123830 73 145 0.0 0.0 0.00 0.00 0.00 72 1016.7
20260830123326 73 140 0.0 0.0 0.00 0.00 0.00 71 1016.6
20260830122824 72 142 0.0 0.0 0.00 0.00 0.00 72 1016.7
20260830122319 72 147 0.0 0.0 0.00 0.00 0.00 72 1016.7
20260830121814 72 147 0.0 0.0 0.00 0.00 0.00 71 1016.6
20260830121313 72 148 0.0 0.0 0.00 0.00 0.00 71 1016.9
20260830120808 72 144 0.0 0.0 0.00 0.00 0.00 70 1016.6
20260830120304 72 146 0.0 0.0 0.00 0.00 0.00 70 1016.6
20260830115801 72 144 0.0 0.0 0.00 0.00 0.00 69 1016.7
20260830115256 72 145 0.0 0.0 0.00 0.00 0.00 70 1016.8
20260830114752 72 143 0.0 0.0 0.00 0.00 0.00 70 1016.6
20260830114247 71 146 0.0 0.0 0.00 0.00 0.00 71 1016.8
20260830113743 71 147 0.0 0.0 0.00 0.00 0.00 71 1016.7
20260830113237 71 146 0.0 0.0 0.00 0.00 0.00 70 1016.7
20260830112733 72 147 0.0 0.0 0.00 0.00 0.00 70 1016.6
20260830112230 72 150 0.0 0.0 0.00 0.00 0.00 69 1016.7
20260830111725 72 142 0.0 0.0 0.00 0.00 0.00 68 1016.8
20260830111221 72 143 0.0 0.0 0.00 0.00 0.00 70 1016.7
20260830110720 72 145 0.0 0.0 0.00 0.00 0.00 69 1016.8
20260830110218 73 144 0.0 0.0 0.00 0.00 0.00 69 1016.8
20260830105716 73 144 0.0 0.0 0.00 0.00 0.00 68 1016.6
20260830105212 73 145 0.0 0.0 0.00 0.00 0.00 67 1016.5
20260830104709 74 140 0.0 0.0 0.00 0.00 0.00 67 1016.6
20260830104205 72 139 3.0 3.0 0.00 0.00 0.00 69 1016.6
20260830103704 73 148 0.0 0.0 0.00 0.00 0.00 68 1016.5
20260830103200 73 135 1.0 2.0 0.00 0.00 0.00 67 1016.6
20260830102658 73 147 0.0 0.0 0.00 0.00 0.00 68 1016.2
20260830102154 73 149 0.0 1.0 0.00 0.00 0.00 68 1016.2
20260830101650 73 146 0.0 1.0 0.00 0.00 0.00 67 1016.2
20260830101145 73 147 0.0 0.0 0.00 0.00 0.00 66 1016.2
20260830100644 74 144 0.0 0.0 0.00 0.00 0.00 64 1016.0
20260830100138 73 127 2.0 2.0 0.00 0.00 0.00 65 1016.4
20260830095632 73 151 0.0 0.0 0.00 0.00 0.00 67 1016.2
20260830095129 73 154 0.0 0.0 0.00 0.00 0.00 67 1016.2
20260830094625 74 144 0.0 0.0 0.00 0.00 0.00 66 1016.2
20260830094120 74 157 0.0 0.0 0.00 0.00 0.00 64 1016.0
20260830093615 75 130 1.0 2.0 0.00 0.00 0.00 64 1016.1
20260830093111 76 112 1.0 1.0 0.00 0.00 0.00 63 1016.2
20260830092606 75 114 2.0 2.0 0.00 0.00 0.00 63 1016.3
20260830092103 76 129 1.0 1.0 0.00 0.00 0.00 63 1016.4
20260830091558 76 148 0.0 0.0 0.00 0.00 0.00 62 1016.2
20260830091057 76 118 1.0 2.0 0.00 0.00 0.00 61 1016.4
20260830090552 76 129 4.0 5.0 0.00 0.00 0.00 60 1016.2
20260830090047 76 140 0.0 0.0 0.00 0.00 0.00 61 1016.2
20260830085541 76 153 0.0 1.0 0.00 0.00 0.00 62 1016.4
20260830085037 76 109 2.0 2.0 0.00 0.00 0.00 61 1016.3
20260830084532 76 106 1.0 2.0 0.00 0.00 0.00 63 1016.2
20260830084027 76 117 3.0 3.0 0.00 0.00 0.00 63 1016.1
20260830083522 75 137 1.0 3.0 0.00 0.00 0.00 63 1016.2
20260830083016 76 131 0.0 1.0 0.00 0.00 0.00 62 1016.1
20260830082512 77 107 2.0 2.0 0.00 0.00 0.00 60 1016.1
20260830082007 77 84 2.0 2.0 0.00 0.00 0.00 60 1016.1
20260830081503 77 78 2.0 2.0 0.00 0.00 0.00 60 1015.9
20260830081001 77 112 3.0 5.0 0.00 0.00 0.00 60 1015.9
20260830080457 77 85 1.0 2.0 0.00 0.00 0.00 60 1015.8
20260830075956 77 146 2.0 2.0 0.00 0.00 0.00 60 1015.8
20260830075452 77 128 2.0 2.0 0.00 0.00 0.00 59 1015.9
20260830074947 76 111 1.0 1.0 0.00 0.00 0.00 59 1015.8
20260830074443 75 151 0.0 0.0 0.00 0.00 0.00 64 1015.6
20260830073938 73 161 0.0 0.0 0.00 0.00 0.00 66 1015.7
20260830073434 73 163 0.0 0.0 0.00 0.00 0.00 65 1015.8
20260830072929 74 162 0.0 0.0 0.00 0.00 0.00 65 1015.8
20260830072425 74 163 0.0 0.0 0.00 0.00 0.00 64 1015.8
20260830071924 74 167 0.0 0.0 0.00 0.00 0.00 64 1015.8
20260830071420 75 135 0.0 0.0 0.00 0.00 0.00 63 1016.0
20260830070918 75 145 0.0 0.0 0.00 0.00 0.00 63 1016.3
20260830070413 75 163 0.0 0.0 0.00 0.00 0.00 62 1016.4
20260830065912 75 163 0.0 0.0 0.00 0.00 0.00 61 1016.2
20260830065407 76 151 0.0 0.0 0.00 0.00 0.00 60 1016.3
20260830064904 76 163 0.0 0.0 0.00 0.00 0.00 60 1016.2
20260830064401 76 162 0.0 0.0 0.00 0.00 0.00 59 1016.2
20260830063854 77 151 0.0 0.0 0.00 0.00 0.00 58 1016.1
20260830063350 76 150 0.0 0.0 0.00 0.00 0.00 59 1016.3
20260830062849 77 138 0.0 0.0 0.00 0.00 0.00 58 1016.2
20260830062348 77 166 0.0 0.0 0.00 0.00 0.00 58 1016.3
20260830061843 77 163 0.0 0.0 0.00 0.00 0.00 56 1016.4
20260830061343 77 178 1.0 1.0 0.00 0.00 0.00 56 1016.4
20260830060840 77 154 0.0 1.0 0.00 0.00 0.00 56 1016.6
20260830060337 77 144 0.0 0.0 0.00 0.00 0.00 58 1016.4
20260830055836 77 146 0.0 0.0 0.00 0.00 0.00 57 1016.8
20260830055332 78 142 0.0 0.0 0.00 0.00 0.00 56 1016.8
20260830054827 78 132 0.0 0.0 0.00 0.00 0.00 55 1016.8
20260830054323 79 142 0.0 0.0 0.00 0.00 0.00 55 1016.6
20260830053818 79 136 1.0 2.0 0.00 0.00 0.00 57 1016.6
20260830053314 79 113 1.0 2.0 0.00 0.00 0.00 56 1016.6
20260830052813 79 114 1.0 1.0 0.00 0.00 0.00 54 1016.6
20260830052308 79 113 0.0 1.0 0.00 0.00 0.00 54 1016.5
20260830051804 80 114 0.0 0.0 0.00 0.00 0.00 53 1016.4
20260830051259 80 53 0.0 0.0 0.00 0.00 0.00 53 1016.2
20260830050757 79 48 1.0 1.0 0.00 0.00 0.00 53 1016.5
20260830050253 79 134 0.0 0.0 0.00 0.00 0.00 54 1016.4
20260830045751 80 145 1.0 1.0 0.00 0.00 0.00 53 1016.3
20260830045246 80 131 0.0 0.0 0.00 0.00 0.00 54 1016.4
20260830044745 80 142 0.0 0.0 0.00 0.00 0.00 53 1016.3
20260830044241 80 123 0.0 0.0 0.00 0.00 0.00 52 1016.4
20260830043736 80 127 0.0 0.0 0.00 0.00 0.00 52 1016.2
20260830043236 80 128 0.0 1.0 0.00 0.00 0.00 52 1016.3
20260830042733 80 115 0.0 0.0 0.00 0.00 0.00 52 1016.3
20260830042229 80 144 0.0 0.0 0.00 0.00 0.00 53 1016.3
20260830041727 80 126 0.0 0.0 0.00 0.00 0.00 55 1016.3
20260830041221 81 145 0.0 0.0 0.00 0.00 0.00 54 1016.0
20260830040717 81 133 0.0 0.0 0.00 0.00 0.00 54 1015.9
20260830040213 81 110 0.0 0.0 0.00 0.00 0.00 54 1015.9
20260830035711 82 111 0.0 1.0 0.00 0.00 0.00 55 1016.0
20260830035206 82 113 2.0 2.0 0.00 0.00 0.00 56 1016.0
20260830034701 83 46 0.0 0.0 0.00 0.00 0.00 55 1016.1
20260830034201 83 166 0.0 0.0 0.00 0.00 0.00 54 1016.1
20260830033657 83 106 2.0 2.0 0.00 0.00 0.00 54 1016.2
20260830033151 83 98 1.0 3.0 0.00 0.00 0.00 55 1016.0
20260830032651 82 137 1.0 1.0 0.00 0.00 0.00 56 1016.1
20260830032146 81 144 0.0 1.0 0.00 0.00 0.00 57 1016.2
20260830031641 80 151 0.0 1.0 0.00 0.00 0.00 60 1016.1
20260830031137 80 133 0.0 0.0 0.00 0.00 0.00 61 1016.0
20260830030632 80 168 0.0 0.0 0.00 0.00 0.00 61 1015.8
20260830030128 80 320 1.0 1.0 0.00 0.00 0.00 60 1015.9
20260830025626 80 351 0.0 1.0 0.00 0.00 0.00 60 1015.9
20260830025120 81 272 1.0 1.0 0.00 0.00 0.00 59 1015.9